Home   Weather   Fürstenfeld   Past weeks

Flag for Austria Past Weather in Fürstenfeld, Styria, Austria — Yesterday and Last 2 Weeks

Now
28 °F

Chilly.


Feels Like: 28 °F
Forecast: 20 / 39 °F
Wind: 1 mph from West

Location: Murska Sobota

Current Time: Dec 7, 2016 at 1:41:18 pm

Latest Report: Dec 7, 2016 at 12:00 pm


Visibility: N/A

Pressure: 30.75 "Hg

Humidity: 96%

Dew Point: 27 °F

Location of FürstenfeldLocation

Past Weather in Fürstenfeld — Graph

°F

Fürstenfeld Temperature Yesterday

Maximum temperature yesterday: 29 °F (at 6:00 pm)
Minimum temperature yesterday: 23 °F (at 1:00 am)
Average temperature yesterday: 26 °F

High & Low Weather Summary for the Past Weeks

 TemperatureHumidityPressure
High65 °F (Nov 23, 2:00 pm)100% (Dec 6, 1:00 pm)30.75 "Hg (Dec 6, 1:00 pm)
Low22 °F (Nov 30, 1:00 am)38% (Nov 28, 3:00 pm)29.89 "Hg (Dec 2, 6:00 am)
Average37 °F83%30.25 "Hg
* Reported Nov 22 12:00 pm — Dec 7 12:00 pm, Fürstenfeld, Weather by CustomWeather, © 2016

Note: Actual official high and low records may vary slightly from our data, if they occured in-between our weather recording intervals... More about our weather records

Advertising

Fürstenfeld Weather History for the Previous 24 Hours

Scroll right to see more
 ConditionsComfort  
Time TempWeatherWind HumidityBarometerVisibility
12:00 pm
Wed, Dec 7
28 °FChilly.1 mph96%30.75 "HgN/A
11:00 am27 °FChilly.2 mph96%30.75 "HgN/A
10:00 am27 °FChilly.1 mph96%30.75 "HgN/A
7:00 am26 °FFog.2 mph96%30.71 "Hg0 mi
6:00 am26 °FChilly.2 mph96%30.69 "HgN/A
5:00 am27 °FChilly.2 mph96%30.68 "HgN/A
4:00 am27 °FChilly.2 mph96%30.66 "HgN/A
3:00 am28 °FChilly.3 mph95%30.65 "HgN/A
2:00 am28 °FChilly.3 mph95%30.63 "HgN/A
1:00 am28 °FChilly.6 mph95%30.60 "HgN/A
6:00 pm
Tue, Dec 6
29 °FChilly.1 mph95%30.53 "HgN/A
5:00 pm29 °FChilly.2 mph95%30.50 "HgN/A
4:00 pm29 °FChilly.3 mph95%30.47 "HgN/A
3:00 pm28 °FChilly.2 mph96%30.46 "HgN/A
2:00 pm28 °FFog.3 mph96%30.45 "Hg0 mi
1:00 pm26 °FFog.1 mph100%30.45 "Hg0 mi
Weather by CustomWeather, © 2016

See weather overviewHow to use our weather pages